"2009-11-17 00:00:00",1423006,3.994,213.2,5.216,1.228,5.356,101.2188,2.409,3.599,12.63,0,109.7,13.51,3.17,175.2
"2009-11-17 00:00:30",1423007,2.943,205.6,2.185,0.117,3.802,101.2091,2.384,3.474,12.54,0,109.7,13.54,3.14,167.6
"2009-11-17 00:01:00",1423008,3.788,209.8,7.161,1.17,5.833,101.1905,2.337,3.55,12.6,0,109.7,13.51,3.10,171.8
"2009-11-17 00:01:30",1423009,5.188,220,6.816,1.061,7.569,101.1879,2.33,3.659,12.73,0,109.7,13.51,3.09,182.0
"2009-11-17 00:02:00",1423010,5.272,221.6,5.678,1.036,8.26,101.1885,2.332,3.692,12.78,0,109.7,13.51,3.09,183.6
"2009-11-17 00:02:30",1423011,4.791,223.9,6.452,1.277,6.973,101.1876,2.33,3.586,12.66,0,109.7,13.51,3.09,185.9
"2009-11-17 00:03:00",1423012,3.533,212.8,7.425,1.183,4.735,101.1885,2.332,3.457,12.55,0,109.7,13.51,3.09,174.8
"2009-11-17 00:03:30",1423013,3.807,212.7,4.69,1.169,5.638,101.1888,2.333,3.476,12.55,0,109.7,13.51,3.09,174.7
"2009-11-17 00:04:00",1423014,4.016,216.2,7.776,1.351,5.455,101.1894,2.334,3.397,12.5,0,109.7,13.51,3.09,178.2
"2009-11-17 00:04:30",1423015,4.55,213.2,7.1,1.263,6.957,101.1925,2.342,3.623,12.73,0,109.7,13.51,3.10,175.2
"2009-11-17 00:05:00",1423016,5.431,219.2,5.922,0.869,8.56,101.1889,2.333,3.651,12.75,0,109.7,13.51,3.09,181.2
"2009-11-17 00:05:30",1423017,4.657,216.6,6.619,1.167,7.02,101.1808,2.312,3.562,12.68,0,109.7,13.51,3.07,178.6
"2009-11-17 00:06:00",1423018,3.594,209.4,10.76,1.128,5.561,101.1808,2.312,3.538,12.63,0,109.7,13.51,3.07,171.4
"2009-11-17 00:06:30",1423019,3.447,208.6,7.458,1.04,5.548,101.1797,2.309,3.462,12.56,0,109.7,13.51,3.07,170.6
"2009-11-17 00:07:00",1423020,2.793,200.4,2.516,0.136,3.969,101.18,2.31,3.414,12.54,0,109.7,13.55,3.07,162.4
"2009-11-17 00:07:30",1423021,4.82,215,5.806,1.036,7.639,101.1835,2.319,3.591,12.73,0,109.7,13.52,3.08,177.0
"2009-11-17 00:08:00",1423022,4.377,214.3,5.967,1.193,7.624,101.1858,2.325,3.615,12.75,0,109.7,13.52,3.09,176.3
"2009-11-17 00:08:30",1423023,4.447,215.1,4.943,1.118,7.825,101.1872,2.328,3.539,12.7,0,109.7,13.52,3.09,177.1
"2009-11-17 00:09:00",1423024,4.049,210.7,5.28,1.229,6.367,101.1875,2.329,3.563,12.74,0,109.7,13.52,3.09,172.7
"2009-11-17 00:09:30",1423025,3.785,211.3,5.198,1.146,5.379,101.188,2.331,3.423,12.61,0,109.7,13.51,3.09,173.3
"2009-11-17 00:10:00",1423026,2.854,209.9,3.487,0.197,3.558,101.188,2.331,3.331,12.53,0,109.7,13.55,3.09,171.9
"2009-11-17 00:10:30",1423027,4.388,219,6.848,1.234,6.63,101.1866,2.327,3.574,12.75,0,109.7,13.51,3.09,181.0
"2009-11-17 00:11:00",1423028,4.993,222.7,5.907,1.051,7.942,101.179,2.308,3.565,12.74,0,109.7,13.51,3.07,184.7
"2009-11-17 00:11:30",1423029,5.424,224,6.249,1.037,8.1,101.168,2.279,3.575,12.76,0,109.7,13.51,3.04,186.0
"2009-11-17 00:12:00",1423030,4.917,222.3,5.241,1.171,7.588,101.1572,2.252,3.572,12.75,0,109.7,13.52,3.01,184.3
"2009-11-17 00:12:30",1423031,3.436,216.7,4.992,0.936,4.61,101.1541,2.244,3.43,12.59,0,109.7,13.52,3.00,178.7
"2009-11-17 00:13:00",1423032,3.248,217,1.63,0.234,3.698,101.1541,2.244,3.308,12.46,0,109.7,13.55,3.00,179.0
"2009-11-17 00:13:30",1423033,4.17,217.4,5.952,1.248,6.635,101.1541,2.244,3.494,12.64,0,109.7,13.52,3.00,179.4
"2009-11-17 00:14:00",1423034,4.733,221.6,6.775,1.187,7.967,101.1541,2.244,3.55,12.7,0,109.7,13.52,3.00,183.6
"2009-11-17 00:14:30",1423035,4.91,221.3,6.107,1.2,7.315,101.1541,2.244,3.529,12.7,0,109.7,13.53,3.00,183.3
"2009-11-17 00:15:00",1423036,4.877,218.9,5.652,1.126,7.594,101.1541,2.244,3.513,12.68,0,109.7,13.53,3.00,180.9
"2009-11-17 00:15:30",1423037,4.201,212.8,7.153,1.332,5.513,101.1541,2.244,3.407,12.55,0,109.7,13.53,3.00,174.8
"2009-11-17 00:16:00",1423038,3.05,209.1,1.561,0.071,3.691,101.1541,2.244,3.298,12.45,0,109.7,13.56,3.00,171.1
"2009-11-17 00:16:30",1423039,3.844,215.6,6.734,1.14,5.932,101.1541,2.244,3.447,12.61,0,109.7,13.53,3.00,177.6
"2009-11-17 00:17:00",1423040,4.589,216.3,6.379,1.163,7.469,101.1541,2.244,3.542,12.69,0,109.7,13.53,3.00,178.3
"2009-11-17 00:17:30",1423041,4.675,217.9,7.717,1.145,7.139,101.1541,2.244,3.474,12.64,0,109.7,13.53,3.00,179.9
"2009-11-17 00:18:00",1423042,5.351,222.3,4.281,0.692,8.68,101.1541,2.244,3.589,12.74,0,109.7,13.53,3.00,184.3
"2009-11-17 00:18:30",1423043,4.313,214,6.362,1.209,5.694,101.1541,2.244,3.39,12.57,0,109.7,13.53,3.00,176.0
"2009-11-17 00:19:00",1423044,3.014,213.7,2.843,0.142,3.654,101.1544,2.245,3.301,12.47,0,109.7,13.57,3.00,175.7
"2009-11-17 00:19:30",1423045,3.837,218.8,7.741,1.221,5.805,101.1561,2.249,3.414,12.57,0,109.7,13.53,3.01,180.8
"2009-11-17 00:20:00",1423046,3.401,218.7,7.561,1.091,5.997,101.1575,2.253,3.506,12.7,0,109.7,13.53,3.01,180.7
"2009-11-17 00:20:30",1423047,4.45,218.8,6.079,1.207,7.226,101.1593,2.257,3.401,12.6,0,109.7,13.53,3.02,180.8
"2009-11-17 00:21:00",1423048,5.195,225.2,3.687,0.772,8.82,101.1641,2.27,3.613,12.82,0,109.6,13.53,3.03,187.2
"2009-11-17 00:21:30",1423049,4.814,217.6,5.878,1.082,7.486,101.1619,2.264,3.471,12.7,0,109.7,13.53,3.02,179.6
"2009-11-17 00:22:00",1423050,3.893,212.6,6.558,1.199,5.852,101.1596,2.258,3.361,12.59,0,109.7,13.53,3.02,174.6
"2009-11-17 00:22:30",1423051,3.348,210.5,5.353,0.868,4.518,101.1568,2.251,3.418,12.67,0,109.7,13.54,3.01,172.5
"2009-11-17 00:23:00",1423052,3.847,212.6,5.242,1.151,4.906,101.1548,2.246,3.314,12.56,0,109.7,13.54,3.01,174.6
"2009-11-17 00:23:30",1423053,3.972,213.4,6.226,1.246,6.475,101.1554,2.247,3.465,12.73,0,109.7,13.54,3.01,175.4
"2009-11-17 00:24:00",1423054,5.285,218.1,5.361,0.663,8.56,101.1517,2.238,3.533,12.8,0,109.7,13.54,3.00,180.1
"2009-11-17 00:24:30",1423055,4.705,212.9,5.54,1.073,7.773,101.1563,2.25,3.51,12.77,0,109.6,13.54,3.01,174.9
"2009-11-17 00:25:00",1423056,3.493,210.3,6.391,1.037,5.444,101.156,2.249,3.354,12.63,0,109.6,13.54,3.01,172.3
"2009-11-17 00:25:30",1423057,2.927,206.5,5.61,1.006,4.521,101.1535,2.243,3.377,12.67,0,109.6,13.53,3.00,168.5
"2009-11-17 00:26:00",1423058,3.742,210.7,6.296,1.015,5.168,101.1521,2.239,3.288,12.58,0,109.6,13.53,3.00,172.7
"2009-11-17 00:26:30",1423059,3.673,211.5,6.773,1.178,6.219,101.1453,2.222,3.441,12.74,0,109.6,13.53,2.98,173.5
"2009-11-17 00:27:00",1423060,4.331,218.8,6.131,1.298,7.257,101.1465,2.225,3.451,12.76,0,109.6,13.53,2.98,180.8
"2009-11-17 00:27:30",1423061,4.783,218.3,5.307,0.948,8.49,101.1468,2.225,3.514,12.83,0,109.6,13.54,2.99,180.3
"2009-11-17 00:28:00",1423062,4.431,214.3,6.015,1.101,7.735,101.1468,2.225,3.47,12.79,0,109.6,13.53,2.99,176.3
"2009-11-17 00:28:30",1423063,3.709,213.6,6.795,1.235,5.86,101.1476,2.227,3.409,12.75,0,109.6,13.53,2.99,175.6
"2009-11-17 00:29:00",1423064,3.599,210.2,7.827,1.265,5.524,101.1488,2.23,3.416,12.76,0,109.6,13.54,2.99,172.2
"2009-11-17 00:29:30",1423065,2.793,206.4,1.277,0.067,3.902,101.1502,2.234,3.314,12.68,0,109.6,13.57,2.99,168.4
"2009-11-17 00:30:00",1423066,4.234,211.5,5.89,1.167,7.004,101.1511,2.236,3.399,12.73,0,109.6,13.54,3.00,173.5
"2009-11-17 00:30:30",1423067,4.765,216.2,5.405,0.883,8.76,101.1514,2.237,3.524,12.86,0,109.6,13.54,3.00,178.2
"2009-11-17 00:31:00",1423068,4.807,215.9,4.532,0.858,8.8,101.1516,2.238,3.503,12.87,0,109.7,13.54,3.00,177.9
"2009-11-17 00:31:30",1423069,4.111,212.5,6.273,1.148,6.994,101.1536,2.243,3.425,12.78,0,109.6,13.54,3.00,174.5
"2009-11-17 00:32:00",1423070,3.664,209,7.079,1.322,5.634,101.1545,2.245,3.393,12.77,0,109.6,13.54,3.00,171.0
"2009-11-17 00:32:30",1423071,2.932,205.1,1.382,0.238,3.72,101.1545,2.245,3.261,12.63,0,109.6,13.54,3.00,167.1
"2009-11-17 00:33:00",1423072,4.07,213.3,6.656,1.177,6.392,101.1545,2.245,3.382,12.74,0,109.6,13.55,3.00,175.3
"2009-11-17 00:33:30",1423073,3.86,209.5,6.369,1.23,6.739,101.1545,2.245,3.401,12.74,0,109.6,13.55,3.00,171.5
"2009-11-17 00:34:00",1423074,4.451,213.8,5.909,1.059,8.49,101.1545,2.245,3.572,12.89,0,109.6,13.55,3.00,175.8
"2009-11-17 00:34:30",1423075,4.696,213.2,4.668,0.785,8.7,101.1545,2.245,3.509,12.86,0,109.6,13.55,3.00,175.2
"2009-11-17 00:35:00",1423076,2.707,202.6,3.416,0.848,4.716,101.1545,2.245,3.373,12.74,0,109.6,13.55,3.00,164.6
"2009-11-17 00:35:30",1423077,3.166,207.6,6.928,1.224,5.007,101.1545,2.245,3.263,12.64,0,109.6,13.55,3.00,169.6
"2009-11-17 00:36:00",1423078,2.367,202.6,1.863,0.082,3.8,101.1545,2.245,3.265,12.61,0,109.6,13.58,3.00,164.6
"2009-11-17 00:36:30",1423079,3.504,208.2,7.087,1.23,6.377,101.1545,2.245,3.422,12.79,0,109.6,13.55,3.00,170.2
"2009-11-17 00:37:00",1423080,4.278,212.1,6.306,0.932,8.53,101.1545,2.245,3.524,12.94,0,109.6,13.56,3.00,174.1
"2009-11-17 00:37:30",1423081,4.58,214.7,3.258,0.872,8.58,101.1545,2.245,3.536,12.92,0,109.6,13.55,3.00,176.7
"2009-11-17 00:38:00",1423082,3.313,206.6,6.506,1.119,6.232,101.1545,2.245,3.459,12.87,0,109.6,13.55,3.00,168.6
"2009-11-17 00:38:30",1423083,3.405,207,5.533,1.188,5.066,101.1545,2.245,3.274,12.67,0,109.6,13.55,3.00,169.0
"2009-11-17 00:39:00",1423084,2.395,202,1.195,0.073,3.651,101.1539,2.244,3.253,12.64,0,109.6,13.58,3.00,164.0
"2009-11-17 00:39:30",1423085,2.458,201.5,1.625,0.052,3.987,101.1539,2.244,3.328,12.73,0,109.6,13.59,3.00,163.5
"2009-11-17 00:40:00",1423086,4.224,214.3,5.983,1.163,7.887,101.1542,2.244,3.449,12.83,0,109.6,13.56,3.00,176.3
"2009-11-17 00:40:30",1423087,4.58,217.3,3.658,0.778,9.22,101.1528,2.241,3.57,12.97,0,109.6,13.56,3.00,179.3
"2009-11-17 00:41:00",1423088,4.12,214,5.462,1.077,8.29,101.1497,2.233,3.516,12.92,0,109.6,13.56,2.99,176.0
"2009-11-17 00:41:30",1423089,3.216,209.1,6.576,1.209,5.717,101.1497,2.233,3.396,12.79,0,109.6,13.56,2.99,171.1
"2009-11-17 00:42:00",1423090,2.15,204.6,0.891,0.072,3.418,101.1452,2.221,3.246,12.65,0,109.6,13.58,2.98,166.6
"2009-11-17 00:42:30",1423091,2.211,205.1,1.249,0.059,3.51,101.1435,2.217,3.25,12.67,0,109.6,13.58,2.98,167.1
"2009-11-17 00:43:00",1423092,3.16,211.6,7.234,1.225,6.114,101.1395,2.207,3.432,12.83,0,109.6,13.55,2.97,173.6
"2009-11-17 00:43:30",1423093,3.69,213.6,6.066,1.212,7.186,101.1355,2.197,3.438,12.87,0,109.6,13.55,2.96,175.6
"2009-11-17 00:44:00",1423094,4.426,217.3,4.885,0.805,9.47,101.1273,2.176,3.533,12.97,0,109.6,13.55,2.94,179.3
"2009-11-17 00:44:30",1423095,4.06,215.7,5.477,1.07,7.931,101.1211,2.16,3.43,12.85,0,109.6,13.55,2.92,177.7
"2009-11-17 00:45:00",1423096,2.591,206.2,4.22,0.838,4.732,101.1205,2.158,3.365,12.82,0,109.6,13.55,2.92,168.2
"2009-11-17 00:45:30",1423097,2.334,203,0.716,0.054,3.654,101.1205,2.158,3.229,12.67,0,109.6,13.58,2.92,165.0
"2009-11-17 00:46:00",1423098,2.746,203.5,4.288,0.886,4.415,101.1205,2.158,3.227,12.7,0,109.6,13.55,2.92,165.5
"2009-11-17 00:46:30",1423099,3.176,205,5.15,1.033,5.183,101.1205,2.158,3.266,12.75,0,109.6,13.56,2.92,167.0
"2009-11-17 00:47:00",1423100,4.926,212.8,3.517,0.576,9.21,101.1205,2.158,3.489,12.99,0,109.6,13.56,2.92,174.8
"2009-11-17 00:47:30",1423101,4.975,214.1,4.077,0.551,9.17,101.1205,2.158,3.526,12.99,0,109.6,13.56,2.92,176.1
"2009-11-17 00:48:00",1423102,3.72,208,6.579,1.158,6.31,101.1211,2.16,3.441,12.93,0,109.6,13.56,2.92,170.0
"2009-11-17 00:48:30",1423103,3.445,207,6.425,1.19,5.277,101.1208,2.159,3.237,12.72,0,109.6,13.56,2.92,169.0
"2009-11-17 00:49:00",1423104,2.604,201.7,0.513,0.054,3.588,101.1214,2.161,3.181,12.67,0,109.6,13.6,2.92,163.7
"2009-11-17 00:49:30",1423105,3.767,207.2,6.247,1.265,6.17,101.1214,2.161,3.253,12.74,0,109.6,13.56,2.92,169.2
"2009-11-17 00:50:00",1423106,3.834,207.8,7.123,1.297,7.125,101.1191,2.155,3.368,12.87,0,109.6,13.56,2.91,169.8
"2009-11-17 00:50:30",1423107,5.013,214.9,3.608,0.706,9.17,101.1163,2.148,3.43,12.9,0,109.6,13.56,2.91,176.9
"2009-11-17 00:51:00",1423108,4.573,212.6,5.817,1.069,7.819,101.111,2.134,3.442,12.92,0,109.6,13.56,2.89,174.6
"2009-11-17 00:51:30",1423109,3.59,206.4,5.856,1.171,5.418,101.1124,2.138,3.261,12.74,0,109.6,13.56,2.90,168.4
"2009-11-17 00:52:00",1423110,2.903,201.9,0.469,0.053,3.561,101.1099,2.131,3.177,12.66,0,109.6,13.6,2.89,163.9
"2009-11-17 00:52:30",1423111,2.941,202,0.497,0.061,3.763,101.1113,2.135,3.17,12.66,0,109.6,13.6,2.89,164.0
"2009-11-17 00:53:00",1423112,4.22,209.4,6.987,1.234,6.766,101.1082,2.127,3.409,12.9,0,109.6,13.57,2.89,171.4
"2009-11-17 00:53:30",1423113,5.225,213.6,5.246,0.788,9.19,101.1088,2.128,3.47,12.92,0,109.6,13.57,2.89,175.6
"2009-11-17 00:54:00",1423114,4.947,213.7,5.503,1.101,8.16,101.1054,2.12,3.42,12.84,0,109.6,13.57,2.88,175.7
"2009-11-17 00:54:30",1423115,4.774,214,5.929,1.149,7.415,101.1068,2.123,3.401,12.82,0,109.6,13.56,2.88,176.0
"2009-11-17 00:55:00",1423116,3.291,205.8,3.313,0.762,3.84,101.1046,2.118,3.159,12.58,0,109.6,13.56,2.88,167.8
"2009-11-17 00:55:30",1423117,3.135,206.7,3.692,0.645,4.159,101.1023,2.112,3.19,12.63,0,109.6,13.57,2.87,168.7
"2009-11-17 00:56:00",1423118,4.813,214,5.683,1.135,7.586,101.106,2.121,3.323,12.75,0,109.6,13.57,2.88,176.0
"2009-11-17 00:56:30",1423119,4.871,212.8,6.595,1.085,7.884,101.1106,2.133,3.387,12.83,0,109.6,13.57,2.89,174.8
"2009-11-17 00:57:00",1423120,4.741,213.3,5.575,1.155,8.09,101.1072,2.124,3.432,12.89,0,109.6,13.57,2.88,175.3
"2009-11-17 00:57:30",1423121,4.981,212.6,5.461,1.052,7.98,101.1115,2.135,3.39,12.83,0,109.6,13.57,2.89,174.6
"2009-11-17 00:58:00",1423122,3.452,204.7,4.548,0.791,4.468,101.1077,2.126,3.274,12.74,0,109.6,13.57,2.89,166.7
"2009-11-17 00:58:30",1423123,3.177,201.9,0.672,0.039,3.73,101.11,2.132,3.163,12.63,0,109.6,13.6,2.89,163.9
"2009-11-17 00:59:00",1423124,4.755,209.2,6.164,1.235,6.97,101.11,2.132,3.35,12.8,0,109.6,13.57,2.89,171.2
"2009-11-17 00:59:30",1423125,5.137,210.4,5.416,1.071,7.974,101.1098,2.131,3.401,12.86,0,109.6,13.57,2.89,172.4
"2009-11-17 01:00:00",1423126,5.496,213.3,5.016,0.804,8.6,101.1118,2.136,3.386,12.83,0,109.6,13.57,2.90,175.3
"2009-11-17 01:00:30",1423127,4.544,208.6,6.856,1.232,6.709,101.1115,2.135,3.396,12.82,0,109.6,13.57,2.89,170.6
"2009-11-17 01:01:00",1423128,4.2,206.9,6.794,1.245,6.25,101.1155,2.145,3.378,12.79,0,109.6,13.57,2.91,168.9
"2009-11-17 01:01:30",1423129,3.218,201.5,0.754,0.081,3.728,101.1146,2.143,3.165,12.6,0,109.6,13.6,2.90,163.5
"2009-11-17 01:02:00",1423130,4.245,206.6,6.393,1.219,5.516,101.1161,2.147,3.258,12.69,0,109.6,13.57,2.91,168.6
"2009-11-17 01:02:30",1423131,5.108,211.8,5.649,1.138,7.785,101.1166,2.148,3.419,12.83,0,109.6,13.57,2.91,173.8
"2009-11-17 01:03:00",1423132,5.338,214.1,4.14,0.914,8.67,101.12,2.157,3.423,12.83,0,109.6,13.57,2.92,176.1
"2009-11-17 01:03:30",1423133,4.879,211.7,5.545,1.165,7.523,101.1197,2.156,3.413,12.82,0,109.6,13.57,2.92,173.7
"2009-11-17 01:04:00",1423134,4.081,207.8,5.542,1.098,5.487,101.1299,2.182,3.351,12.73,0,109.6,13.57,2.94,169.8
"2009-11-17 01:04:30",1423135,3.237,203.1,0.637,0.059,3.737,101.1356,2.197,3.191,12.57,0,109.6,13.6,2.96,165.1
"2009-11-17 01:05:00",1423136,4.278,207.6,6.593,1.232,5.77,101.1399,2.208,3.242,12.61,0,109.6,13.57,2.97,169.6
"2009-11-17 01:05:30",1423137,4.628,208.8,6.53,1.25,7.414,101.1444,2.219,3.439,12.82,0,109.6,13.57,2.98,170.8
"2009-11-17 01:06:00",1423138,4.923,211.2,5.415,1.148,8.14,101.1529,2.241,3.442,12.83,0,109.6,13.57,3.00,173.2
"2009-11-17 01:06:30",1423139,5.144,211.3,5.315,0.937,8.17,101.1523,2.239,3.457,12.81,0,109.6,13.57,3.00,173.3
"2009-11-17 01:07:00",1423140,4.847,209.4,6.185,1.123,7.202,101.1517,2.238,3.369,12.72,0,109.6,13.57,3.00,171.4
"2009-11-17 01:07:30",1423141,3.074,201.3,0.331,0.017,3.791,101.1546,2.245,3.222,12.58,0,109.6,13.6,3.01,163.3
"2009-11-17 01:08:00",1423142,3.211,201.8,2.43,0.64,4.095,101.1543,2.245,3.297,12.65,0,109.6,13.57,3.00,163.8
"2009-11-17 01:08:30",1423143,4.816,210.9,5.84,1.171,7.714,101.1537,2.243,3.429,12.78,0,109.6,13.57,3.00,172.9
"2009-11-17 01:09:00",1423144,4.618,209.8,5.795,1.202,7.686,101.1523,2.239,3.499,12.85,0,109.6,13.57,3.00,171.8
"2009-11-17 01:09:30",1423145,5.174,211.3,4.821,0.794,8.44,101.1523,2.239,3.497,12.87,0,109.6,13.57,3.00,173.3
"2009-11-17 01:10:00",1423146,3.716,202.9,6.143,1.12,5.888,101.1532,2.242,3.477,12.83,0,109.6,13.57,3.00,164.9
"2009-11-17 01:10:30",1423147,3.942,201.7,5.722,1.192,5.16,101.1546,2.245,3.274,12.61,0,109.6,13.57,3.01,163.7
"2009-11-17 01:11:00",1423148,3.237,199.4,2.49,0.631,3.866,101.1577,2.253,3.302,12.65,0,109.6,13.57,3.01,161.4
"2009-11-17 01:11:30",1423149,4.109,203.9,7.773,1.25,6.167,101.1611,2.262,3.362,12.71,0,109.6,13.57,3.02,165.9
"2009-11-17 01:12:00",1423150,4.782,206,5.711,1.126,8.18,101.1679,2.279,3.53,12.87,0,109.6,13.57,3.04,168.0
"2009-11-17 01:12:30",1423151,4.942,207.8,6.064,1.103,8.14,101.1755,2.299,3.516,12.83,0,109.6,13.57,3.06,169.8
"2009-11-17 01:13:00",1423152,4.061,203.4,6.879,1.227,6.03,101.1781,2.305,3.383,12.72,0,109.6,13.57,3.07,165.4
"2009-11-17 01:13:30",1423153,3.986,201.8,6.771,1.227,6.366,101.184,2.32,3.455,12.76,0,109.6,13.57,3.08,163.8
"2009-11-17 01:14:00",1423154,3.953,201.1,6.248,1.252,5.974,101.1886,2.332,3.419,12.73,0,109.6,13.57,3.09,163.1
"2009-11-17 01:14:30",1423155,3.259,197,4.713,0.873,5.248,101.1877,2.33,3.451,12.76,0,109.6,13.57,3.09,159.0
"2009-11-17 01:15:00",1423156,4.34,201.9,6.149,1.231,7.372,101.1883,2.331,3.51,12.82,0,109.6,13.57,3.09,163.9
"2009-11-17 01:15:30",1423157,4.647,203,5.667,1.103,8.19,101.188,2.33,3.529,12.83,0,109.6,13.57,3.09,165.0
"2009-11-17 01:16:00",1423158,4.124,199.8,6.336,1.214,7.055,101.1877,2.33,3.527,12.84,0,109.6,13.57,3.09,161.8
"2009-11-17 01:16:30",1423159,3.857,199.8,6.567,1.24,6.322,101.1871,2.328,3.421,12.71,0,109.6,13.57,3.09,161.8
"2009-11-17 01:17:00",1423160,3.14,195.4,4.446,0.949,4.558,101.1883,2.331,3.326,12.61,0,109.6,13.57,3.09,157.4
"2009-11-17 01:17:30",1423161,3.589,198.2,5.662,1.18,6.051,101.188,2.33,3.486,12.75,0,109.6,13.57,3.09,160.2
"2009-11-17 01:18:00",1423162,3.468,197.6,5.682,1.17,5.738,101.1883,2.331,3.468,12.73,0,109.6,13.57,3.09,159.6
"2009-11-17 01:18:30",1423163,3.858,200.6,6.445,1.259,6.811,101.1886,2.332,3.482,12.77,0,109.6,13.57,3.09,162.6
"2009-11-17 01:19:00",1423164,3.379,200.2,6.082,1.149,6.188,101.1886,2.332,3.479,12.73,0,109.6,13.57,3.09,162.2
"2009-11-17 01:19:30",1423165,4.43,205.3,5.426,1.115,7.508,101.1877,2.33,3.479,12.73,0,109.6,13.57,3.09,167.3
"2009-11-17 01:20:00",1423166,2.595,195.7,0.014,0.022,4.267,101.1889,2.333,3.422,12.68,0,109.6,13.57,3.09,157.7
"2009-11-17 01:20:30",1423167,3.626,201.5,6.113,1.27,5.886,101.1894,2.334,3.451,12.68,0,109.6,13.57,3.09,163.5
"2009-11-17 01:21:00",1423168,3.727,202.9,6.232,1.208,6.391,101.1925,2.342,3.558,12.8,0,109.7,13.58,3.10,164.9
"2009-11-17 01:21:30",1423169,3.087,198.8,4.497,0.935,5.108,101.1934,2.344,3.489,12.72,0,109.6,13.58,3.10,160.8
"2009-11-17 01:22:00",1423170,4.431,206.2,5.713,1.154,7.372,101.1945,2.347,3.451,12.65,0,109.6,13.58,3.11,168.2
"2009-11-17 01:22:30",1423171,3.911,203.2,7.077,1.245,6.787,101.1948,2.348,3.464,12.68,0,109.6,13.58,3.11,165.2
"2009-11-17 01:23:00",1423172,3.474,200.7,6.128,1.183,5.933,101.1945,2.347,3.496,12.7,0,109.6,13.58,3.11,162.7
"2009-11-17 01:23:30",1423173,2.869,198.2,2.475,0.659,4.437,101.1968,2.353,3.401,12.62,0,109.6,13.58,3.11,160.2
"2009-11-17 01:24:00",1423174,3.701,204.8,6.329,1.224,6.567,101.1971,2.354,3.599,12.83,0,109.6,13.58,3.11,166.8
"2009-11-17 01:24:30",1423175,4.103,205.8,6.068,1.174,6.917,101.1956,2.35,3.566,12.77,0,109.6,13.58,3.11,167.8
"2009-11-17 01:25:00",1423176,3.55,203.1,6.096,1.16,5.779,101.1914,2.339,3.421,12.64,0,109.6,13.58,3.10,165.1
"2009-11-17 01:25:30",1423177,3.562,201.8,6.123,1.122,5.526,101.1897,2.335,3.367,12.59,0,109.6,13.58,3.10,163.8
"2009-11-17 01:26:00",1423178,4.668,206.9,5.962,1.07,7.919,101.1891,2.333,3.591,12.81,0,109.6,13.58,3.09,168.9
"2009-11-17 01:26:30",1423179,4.172,203.6,6.528,1.264,6.94,101.1889,2.333,3.511,12.75,0,109.6,13.58,3.09,165.6
"2009-11-17 01:27:00",1423180,4.075,202.2,6.178,1.243,6.435,101.1889,2.333,3.515,12.75,0,109.7,13.58,3.09,164.2
"2009-11-17 01:27:30",1423181,3.835,201,6.493,1.239,6.561,101.1886,2.332,3.583,12.83,0,109.7,13.58,3.09,163.0
"2009-11-17 01:28:00",1423182,3.674,196.9,6.491,1.225,5.526,101.1886,2.332,3.374,12.59,0,109.7,13.58,3.09,158.9
"2009-11-17 01:28:30",1423183,3.239,194.1,5.148,1.059,4.882,101.1889,2.333,3.341,12.54,0,109.7,13.58,3.09,156.1
"2009-11-17 01:29:00",1423184,3.304,194.6,5.57,1.108,6.232,101.1889,2.333,3.527,12.74,0,109.6,13.58,3.09,156.6
"2009-11-17 01:29:30",1423185,4.522,199.9,5.742,1.072,8.55,101.1889,2.333,3.576,12.79,0,109.6,13.58,3.09,161.9
"2009-11-17 01:30:00",1423186,4.259,200.8,5.638,1.194,8.18,101.1886,2.332,3.549,12.72,0,109.7,13.58,3.09,162.8
"2009-11-17 01:30:30",1423187,4.256,199.7,5.903,1.225,7.323,101.1886,2.332,3.556,12.76,0,109.7,13.57,3.09,161.7
"2009-11-17 01:31:00",1423188,4.11,197.2,6.135,1.262,6.188,101.1889,2.333,3.477,12.69,0,109.7,13.57,3.09,159.2
"2009-11-17 01:31:30",1423189,2.862,190.7,0.381,0.049,3.836,101.1889,2.333,3.34,12.54,0,109.7,13.61,3.09,152.7
"2009-11-17 01:32:00",1423190,3.407,192.5,4.937,0.993,4.741,101.1886,2.332,3.378,12.57,0,109.7,13.57,3.09,154.5
"2009-11-17 01:32:30",1423191,4.516,198.4,6.183,1.204,8.02,101.1889,2.333,3.596,12.8,0,109.7,13.57,3.09,160.4
"2009-11-17 01:33:00",1423192,5.129,202.5,2.57,0.861,9.25,101.1891,2.333,3.654,12.87,0,109.7,13.57,3.09,164.5
"2009-11-17 01:33:30",1423193,4.584,197.7,6.411,1.147,7.909,101.1908,2.338,3.554,12.74,0,109.6,13.57,3.10,159.7
"2009-11-17 01:34:00",1423194,3.343,192,5.553,0.997,5.466,101.19,2.336,3.461,12.65,0,109.7,13.57,3.10,154.0
"2009-11-17 01:34:30",1423195,2.8,189.6,0.365,0.021,3.842,101.1939,2.346,3.357,12.54,0,109.7,13.61,3.11,151.6
"2009-11-17 01:35:00",1423196,2.945,191.4,3.316,0.616,4.235,101.1959,2.351,3.384,12.55,0,109.7,13.58,3.11,153.4
"2009-11-17 01:35:30",1423197,4.63,199.6,5.798,1.128,7.981,101.2013,2.364,3.536,12.74,0,109.7,13.58,3.12,161.6
"2009-11-17 01:36:00",1423198,4.441,200.7,5.996,1.141,8.4,101.1999,2.361,3.629,12.79,0,109.7,13.58,3.12,162.7
"2009-11-17 01:36:30",1423199,4.661,203.1,4.906,1.112,8.59,101.2013,2.364,3.626,12.82,0,109.7,13.59,3.12,165.1
"2009-11-17 01:37:00",1423200,4.043,200.2,6.183,1.236,6.864,101.2033,2.37,3.583,12.76,0,109.6,13.58,3.13,162.2
"2009-11-17 01:37:30",1423201,3.226,196.2,5.126,0.848,4.903,101.2036,2.37,3.427,12.6,0,109.6,13.58,3.13,158.2
"2009-11-17 01:38:00",1423202,2.838,194,0.127,0.037,3.815,101.2033,2.37,3.364,12.54,0,109.6,13.61,3.13,156.0
"2009-11-17 01:38:30",1423203,3.517,197.6,5.899,1.132,5.634,101.2024,2.367,3.469,12.66,0,109.6,13.59,3.13,159.6
"2009-11-17 01:39:00",1423204,4.582,204.1,5.437,1.118,8.29,101.2016,2.365,3.615,12.79,0,109.6,13.59,3.13,166.1
"2009-11-17 01:39:30",1423205,4.859,204.8,5.24,0.955,8.83,101.2016,2.365,3.641,12.81,0,109.6,13.59,3.13,166.8
"2009-11-17 01:40:00",1423206,4.461,203.9,5.421,1.132,8.02,101.2027,2.368,3.622,12.77,0,109.6,13.59,3.13,165.9
"2009-11-17 01:40:30",1423207,3.343,197.5,5.463,1.071,4.972,101.2022,2.367,3.417,12.57,0,109.6,13.58,3.13,159.5
"2009-11-17 01:41:00",1423208,2.664,194.6,0.467,0.037,3.733,101.2053,2.375,3.375,12.49,0,109.6,13.61,3.13,156.6
"2009-11-17 01:41:30",1423209,2.599,194.5,0.389,0.043,4.127,101.2033,2.37,3.369,12.49,0,109.6,13.62,3.13,156.5
"2009-11-17 01:42:00",1423210,3.952,202,6.431,1.258,7.424,101.2027,2.368,3.601,12.69,0,109.6,13.59,3.13,164.0
"2009-11-17 01:42:30",1423211,4.719,206.3,3.481,0.762,9.27,101.2024,2.367,3.656,12.75,0,109.6,13.59,3.13,168.3
"2009-11-17 01:43:00",1423212,4.051,204.7,5.701,1.139,8.28,101.2047,2.373,3.613,12.68,0,109.6,13.59,3.13,166.7
"2009-11-17 01:43:30",1423213,3.273,199.8,6.812,1.258,6.545,101.2039,2.371,3.521,12.57,0,109.6,13.59,3.13,161.8
"2009-11-17 01:44:00",1423214,2.064,191.6,0.484,0.042,3.837,101.2036,2.37,3.375,12.41,0,109.6,13.62,3.13,153.6
"2009-11-17 01:44:30",1423215,2.11,191.5,0.834,0.052,3.858,101.2041,2.372,3.372,12.4,0,109.6,13.62,3.13,153.5
"2009-11-17 01:45:00",1423216,2.005,191.7,1.135,0.061,4.494,101.2056,2.375,3.431,12.43,0,109.6,13.62,3.14,153.7
"2009-11-17 01:45:30",1423217,3.36,199.3,6.468,1.267,7.849,101.2024,2.367,3.632,12.6,0,109.6,13.59,3.13,161.3
"2009-11-17 01:46:00",1423218,4.177,203.8,3.524,0.776,9.51,101.2039,2.371,3.682,12.64,0,109.6,13.59,3.13,165.8
"2009-11-17 01:46:30",1423219,4.004,203.5,4.254,0.812,9.44,101.2033,2.37,3.685,12.65,0,109.6,13.59,3.13,165.5
"2009-11-17 01:47:00",1423220,2.241,193.6,5,0.942,5.17,101.2058,2.376,3.422,12.37,0,109.6,13.59,3.14,155.6
"2009-11-17 01:47:30",1423221,1.816,193.8,1.299,0.05,3.898,101.207,2.379,3.37,12.3,0,109.6,13.61,3.14,155.8